Hourly Data Report for July 25, 2017

TORONTO CITY
ONTARIO

43°40'00.000" N
79°24'00.000" W
112.50 m
6158355
71508
XTO

Download Data

Hourly Data (July 2017)
Hourly Data Report for July 25, 2017
TIME
LST
Temp Definition
°C
Dew Point Definition
°C
Rel Hum Definition
%
Precip. Amount Definition
mm

Wind Dir Definition
10's deg

Wind Spd Definition
km/h
Visibility Definition
km
Stn Press Definition
kPa
Hmdx Definition


Wind Chill Definition


Weather Definition


00:00 17.2 13.2 77 0.0 LegendMM LegendMM   100.30     LegendNANA
01:00 16.8 13.1 79 0.0 LegendMM LegendMM   100.36     LegendNANA
02:00 16.5 13.0 80 0.0 LegendMM LegendMM   100.37     LegendNANA
03:00 16.7 12.8 78 0.0 LegendMM LegendMM   100.43     LegendNANA
04:00 17.0 12.7 76 0.0 LegendMM LegendMM   100.51     LegendNANA
05:00 17.1 12.2 73 0.0 LegendMM LegendMM   100.58     LegendNANA
06:00 17.3 11.8 70 0.0 LegendMM LegendMM   100.66     LegendNANA
07:00 17.5 11.2 67 0.0 LegendMM LegendMM   100.74     LegendNANA
08:00 17.8 10.8 64 0.0 LegendMM LegendMM   100.83     LegendNANA
09:00 19.2 10.7 58 0.2 LegendMM LegendMM   100.84     LegendNANA
10:00 20.0 11.0 56 0.0 LegendMM LegendMM   100.88     LegendNANA
11:00 21.5 11.4 53 0.0 LegendMM LegendMM   100.89     LegendNANA
12:00 21.3 11.1 52 0.0 LegendMM LegendMM   100.92     LegendNANA
13:00 22.4 11.0 48 0.0 LegendMM LegendMM   100.91     LegendNANA
14:00 21.2 12.1 56 0.0 LegendMM LegendMM   100.90     LegendNANA
15:00 22.0 13.7 59 0.0 LegendMM LegendMM   100.93 25   LegendNANA
16:00 22.0 12.9 56 0.0 LegendMM LegendMM   100.95 25   LegendNANA
17:00 21.4 12.6 57 0.0 LegendMM LegendMM   100.96     LegendNANA
18:00 20.8 12.6 59 0.0 LegendMM LegendMM   100.97     LegendNANA
19:00 20.1 12.8 63 0.0 LegendMM LegendMM   100.96     LegendNANA
20:00 19.4 12.7 65 0.0 LegendMM LegendMM   100.96     LegendNANA
21:00 18.8 12.9 69 0.0 LegendMM LegendMM   101.00     LegendNANA
22:00 18.3 12.5 69 0.0 LegendMM LegendMM   100.97     LegendNANA
23:00 18.0 12.8 72 0.0 LegendMM LegendMM   100.98     LegendNANA

Notes on Data Quality.

Legend

  • E = Estimated
  • M = Missing
  • NA = Not Available*
  • [empty] = Indicates an unobserved value
Date modified: